Starlink 5106

operational
NORAD ID: 54823 Int'l Des: 2022-177 Owner: SPXS Country: US Constellation: starlink
LEOCIRCULAR

About Starlink 5106

Description loading...

Live Position

Loading 3D Globe...

Upcoming Passes

Altitude History

Altitude vs Time

uPlot chart will show altitude changes over time

Two-Line Element Set

1 54823U 22177D 25347.14213361 -.00000310 00000-0 -79228-5 0 9992
2 54823 43.0020 243.8409 0000804 285.1551 74.9203 15.02533567163936
Epoch: Dec 13, 2025 • Age: 15 hours

Current Status

Altitude 571.0 km
Velocity 7.58 km/s
Sub-Earth Point -40.78°S, 121.19°E
Launch Date Dec 28, 2022
Age 2.9 years
Type internet

Technical Details

Classification Payload
Mass 305.00 kg
Dry Mass 290.00 kg
Total Mass 305.00 kg
Length 0.20 m
Diameter 2.80 m
Span 9.00 m
Shape Box + pan
Manufacturer SPXS
Bus Type Starlink
Phase Status In Orbit
Owner/State SPXS/US

Large Constellations

Loading constellations...